Date String (YYYY-MM-DD hh:mm:ss) UTC,Instrument flags,absolute air pressure of the measurement (hPa),sample flow rate (lpm),inlet stack bypass flow (lpm),air temperature of the measurement (°C),ambient temperature measured by the external sensor (°C),aerosol sample conditioner tube jacket temperature (°C),OPC LED temperature (°C),internal box temperature (°C),relative humidity of the measurement (%),span deviation,mass concentration of particles derived from Lorenz-Mie calculation of OPC scattering (μg/m³),mass concentration of particles derived from Lorenz-Mie calculation of OPC scattering (μg/m³),mass concentration of particles derived from Lorenz-Mie calculation of OPC scattering (μg/m³)
DateTimeUTC,F1_M11,P_M11,Q1_M11,Q2_M11,T1_M11,T2_M11,T3_M11,T4_M11,T5_M11,U1_M11,ZSPAN_M11,X0_M11,X2_M11,X1_M11
2023-09-14 19:00:00,SystemResetWarning,0833.3,4.99,000.00,027.7,025.7,000.0,036.1,029.2,29.4,0000.0,0009.23,0004.64,0004.28
2023-09-14 19:01:00,SystemResetWarning,0833.3,5.00,000.00,027.7,026.0,000.0,036.1,029.3,29.3,0000.0,0009.27,0004.64,0004.29
2023-09-14 19:02:00,SystemResetWarning,0833.4,5.01,000.00,027.8,026.2,000.0,036.1,029.4,29.1,0000.0,0009.28,0004.65,0004.32
2023-09-14 19:03:00,SystemResetWarning,0833.4,5.00,000.00,027.8,026.4,000.0,036.1,029.5,28.6,0000.0,0008.91,0004.67,0004.34
2023-09-14 19:04:00,SystemResetWarning,0833.4,5.00,000.00,027.8,026.6,000.0,036.1,029.5,28.1,0000.0,0008.84,0004.70,0004.36
2023-09-14 19:05:00,SystemResetWarning,0833.4,4.99,000.00,027.9,026.8,000.0,036.2,029.6,28.3,0000.0,0009.06,0004.73,0004.37
2023-09-14 19:06:00,SystemResetWarning,0833.3,5.00,000.00,027.9,026.9,000.0,036.2,029.6,28.3,0000.0,0009.19,0004.76,0004.39
2023-09-14 19:07:00,SystemResetWarning,0833.4,5.00,000.00,028.0,027.0,000.0,036.2,029.7,27.9,0000.0,0009.37,0004.80,0004.40
2023-09-14 19:08:00,SystemResetWarning,0833.4,5.00,000.00,028.0,027.1,000.0,036.3,029.7,27.7,0000.0,0009.79,0004.82,0004.40
2023-09-14 19:09:00,SystemResetWarning,0833.4,5.00,000.00,028.1,027.2,000.0,036.3,029.8,27.5,0000.0,0009.84,0004.83,0004.40
2023-09-14 19:10:00,SystemResetWarning,0833.4,5.00,000.00,028.1,027.3,000.0,036.3,029.9,27.8,0000.0,0009.46,0004.85,0004.40
2023-09-14 19:11:00,SystemResetWarning,0833.4,4.99,000.00,028.2,026.9,000.0,036.3,029.8,28.3,0000.0,0009.35,0004.85,0004.39
2023-09-14 19:12:00,SystemResetWarning,0833.3,4.98,000.00,028.1,025.2,000.0,036.3,029.3,28.0,0000.0,0009.29,0004.85,0004.40
2023-09-14 19:13:00,SystemResetWarning,0833.3,5.02,000.00,027.9,024.1,000.0,036.2,029.0,28.1,0000.0,0009.29,0004.83,0004.40
2023-09-14 19:14:00,SystemResetWarning,0833.3,4.99,000.00,027.8,024.0,000.0,036.2,029.0,28.0,0000.0,0009.53,0004.84,0004.41
2023-09-14 19:15:00,SystemResetWarning,0833.3,5.01,000.00,027.8,024.3,000.0,036.2,029.0,28.9,0000.0,0009.61,0004.88,0004.42
2023-09-14 19:16:00,SystemResetWarning,0833.2,5.00,000.00,027.7,024.7,000.0,036.2,029.1,28.7,0000.0,0009.48,0004.90,0004.43
2023-09-14 19:17:00,SystemResetWarning,0833.3,5.00,000.00,027.7,025.1,000.0,036.2,029.2,28.7,0000.0,0009.50,0004.93,0004.45
2023-09-14 19:18:00,SystemResetWarning,0833.2,5.00,000.00,027.8,025.5,000.0,036.2,029.3,28.5,0000.0,0009.44,0004.95,0004.48
2023-09-14 19:19:00,SystemResetWarning,0833.2,5.00,000.00,027.8,025.8,000.0,036.2,029.4,28.6,0000.0,0009.43,0004.98,0004.50
2023-09-14 19:20:00,SystemResetWarning,0833.2,5.00,000.00,027.8,026.1,000.0,036.2,029.4,28.1,0000.0,0009.52,0005.05,0004.51
2023-09-14 19:21:00,SystemResetWarning,0833.2,5.00,000.00,027.8,026.3,000.0,036.2,029.5,28.1,0000.0,0009.52,0005.09,0004.53
2023-09-14 19:22:00,SystemResetWarning,0833.2,5.00,000.00,027.9,026.5,000.0,036.2,029.6,28.0,0000.0,0009.30,0005.07,0004.54
2023-09-14 19:23:00,SystemResetWarning,0833.2,5.01,000.00,027.9,026.7,000.0,036.2,029.6,28.3,0000.0,0009.32,0005.08,0004.54
2023-09-14 19:24:00,SystemResetWarning,0833.2,5.00,000.00,028.0,026.9,000.0,036.2,029.6,28.2,0000.0,0009.41,0005.10,0004.54
2023-09-14 19:25:00,SystemResetWarning,0833.2,5.00,000.00,028.0,027.0,000.0,036.3,029.7,28.1,0000.0,0009.19,0005.09,0004.54
2023-09-14 19:26:00,SystemResetWarning,0833.2,4.99,000.00,028.1,027.1,000.0,036.3,029.8,28.4,0000.0,0009.09,0005.10,0004.54
2023-09-14 19:27:00,SystemResetWarning,0833.2,5.00,000.00,028.1,027.2,000.0,036.3,029.8,28.5,0000.0,0009.32,0005.09,0004.54
2023-09-14 19:28:00,SystemResetWarning,0833.2,5.01,000.00,028.2,027.3,000.0,036.4,029.9,28.2,0000.0,0009.34,0005.10,0004.54
2023-09-14 19:29:00,SystemResetWarning,0833.1,5.00,000.00,028.2,027.1,000.0,036.4,029.9,28.1,0000.0,0009.33,0005.08,0004.53
2023-09-14 19:30:00,SystemResetWarning,0833.2,4.99,000.00,028.2,025.7,000.0,036.3,029.5,27.5,0000.0,0009.38,0005.09,0004.53
2023-09-14 19:31:00,SystemResetWarning,0833.1,5.02,000.00,028.0,024.9,000.0,036.3,029.4,27.8,0000.0,0008.76,0005.05,0004.52
2023-09-14 19:32:00,SystemResetWarning,0833.2,4.99,000.00,028.0,025.0,000.0,036.3,029.3,27.7,0000.0,0008.58,0005.00,0004.52
2023-09-14 19:33:00,SystemResetWarning,0833.1,5.00,000.00,027.9,025.3,000.0,036.3,029.3,27.5,0000.0,0008.71,0005.02,0004.50
2023-09-14 19:34:00,SystemResetWarning,0833.0,5.01,000.00,027.9,025.6,000.0,036.3,029.4,27.8,0000.0,0008.68,0004.99,0004.47
2023-09-14 19:35:00,SystemResetWarning,0833.0,4.99,000.00,028.0,025.9,000.0,036.3,029.5,27.6,0000.0,0008.63,0004.92,0004.44
2023-09-14 19:36:00,SystemResetWarning,0833.0,5.01,000.00,028.0,026.2,000.0,036.3,029.6,27.4,0000.0,0009.10,0004.89,0004.40
2023-09-14 19:37:00,SystemResetWarning,0833.4,5.00,000.00,028.0,026.4,000.0,036.3,029.6,27.7,0000.0,0009.00,0004.82,0004.36
2023-09-14 19:38:00,SystemResetWarning,0833.4,4.99,000.00,028.1,026.6,000.0,036.4,029.7,28.1,0000.0,0008.78,0004.80,0004.31
2023-09-14 19:39:00,SystemResetWarning,0833.0,4.99,000.00,028.1,026.8,000.0,036.4,029.7,27.6,0000.0,0008.68,0004.74,0004.27
2023-09-14 19:40:00,SystemResetWarning,0833.1,5.00,000.00,028.1,027.0,000.0,036.4,029.8,27.8,0000.0,0008.65,0004.72,0004.24
2023-09-14 19:41:00,SystemResetWarning,0833.5,5.00,000.00,028.2,027.1,000.0,036.4,029.9,27.6,0000.0,0008.53,0004.69,0004.22
2023-09-14 19:42:00,SystemResetWarning,0833.4,5.01,000.00,028.2,027.2,000.0,036.4,030.0,27.5,0000.0,0008.64,0004.65,0004.19
2023-09-14 19:43:00,SystemResetWarning,0833.2,5.00,000.00,028.3,027.3,000.0,036.5,030.0,26.7,0000.0,0008.82,0004.64,0004.17
2023-09-14 19:44:00,SystemResetWarning,0832.9,4.98,000.00,028.2,026.2,000.0,036.4,029.7,27.0,0000.0,0008.68,0004.62,0004.16
2023-09-14 19:45:00,SystemResetWarning,0833.1,5.01,000.00,028.1,024.6,000.0,036.4,029.1,27.0,0000.0,0008.71,0004.64,0004.16
2023-09-14 19:46:00,SystemResetWarning,0833.0,5.01,000.00,028.0,024.0,000.0,036.3,029.1,27.3,0000.0,0008.69,0004.66,0004.17
2023-09-14 19:47:00,SystemResetWarning,0833.1,5.00,000.00,027.9,024.1,000.0,036.3,029.0,28.1,0000.0,0008.23,0004.66,0004.18
2023-09-14 19:48:00,SystemResetWarning,0833.3,5.00,000.00,027.8,024.5,000.0,036.3,029.1,27.7,0000.0,0008.42,0004.67,0004.18
2023-09-14 19:49:00,SystemResetWarning,0833.4,4.99,000.00,027.8,024.9,000.0,036.3,029.1,27.6,0000.0,0008.37,0004.67,0004.18
2023-09-14 19:50:00,SystemResetWarning,0832.9,5.01,000.00,027.8,025.3,000.0,036.3,029.3,27.8,0000.0,0008.75,0004.69,0004.20
2023-09-14 19:51:00,SystemResetWarning,0832.8,4.99,000.00,027.8,025.7,000.0,036.3,029.4,27.7,0000.0,0009.43,0004.68,0004.19
2023-09-14 19:52:00,SystemResetWarning,0832.8,5.00,000.00,027.9,026.0,000.0,036.3,029.4,27.2,0000.0,0009.44,0004.66,0004.18
2023-09-14 19:53:00,SystemResetWarning,0832.8,5.00,000.00,027.9,026.3,000.0,036.3,029.5,27.8,0000.0,0009.39,0004.64,0004.16
2023-09-14 19:54:00,SystemResetWarning,0832.9,5.00,000.00,027.9,026.5,000.0,036.3,029.6,28.3,0000.0,0009.64,0004.62,0004.14
2023-09-14 19:55:00,SystemResetWarning,0833.1,5.01,000.00,028.0,026.7,000.0,036.3,029.7,28.7,0000.0,0009.73,0004.58,0004.12
2023-09-14 19:56:00,SystemResetWarning,0832.9,5.01,000.00,028.0,026.8,000.0,036.3,029.7,28.3,0000.0,0009.76,0004.57,0004.10
2023-09-14 19:57:00,SystemResetWarning,0833.4,4.99,000.00,028.1,027.0,000.0,036.3,029.8,27.7,0000.0,0009.86,0004.60,0004.08
2023-09-14 19:58:00,SystemResetWarning,0833.2,4.99,000.00,028.1,027.1,000.0,036.3,029.9,27.5,0000.0,0009.79,0004.59,0004.06
2023-09-14 19:59:00,SystemResetWarning,0833.3,4.99,000.00,028.2,027.2,000.0,036.4,029.9,27.8,0000.0,0009.66,0004.58,0004.04
